TimeCDT,TemperatureF,Dew PointF,Humidity,Sea Level PressureIn,VisibilityMPH,Wind Direction,Wind SpeedMPH,Gust SpeedMPH,PrecipitationIn,Events,Conditions,WindDirDegrees,DateUTC
12:15 AM,27.5,21.4,78,30.32,10.0,WSW,5.8,-,N/A,,Clear,250,2013-10-25 05:15:00
12:35 AM,27.9,21.7,78,30.33,10.0,West,5.8,-,N/A,,Clear,260,2013-10-25 05:35:00
12:55 AM,27.5,22.1,80,30.33,10.0,West,5.8,-,N/A,,Clear,260,2013-10-25 05:55:00
1:15 AM,27.5,22.1,80,30.33,10.0,WSW,4.6,-,N/A,,Clear,250,2013-10-25 06:15:00
1:35 AM,27.1,22.6,83,30.34,10.0,West,3.5,-,N/A,,Clear,260,2013-10-25 06:35:00
1:55 AM,27.1,23.0,84,30.35,10.0,WSW,4.6,-,N/A,,Clear,250,2013-10-25 06:55:00
2:15 AM,27.1,23.0,84,30.35,10.0,West,4.6,-,N/A,,Clear,260,2013-10-25 07:15:00
2:35 AM,26.2,22.3,85,30.35,10.0,West,4.6,-,N/A,,Clear,270,2013-10-25 07:35:00
2:55 AM,25.3,21.9,87,30.34,10.0,Calm,Calm,-,N/A,,Clear,0,2013-10-25 07:55:00
3:15 AM,27.1,23.7,87,30.35,10.0,Calm,Calm,-,N/A,,Clear,0,2013-10-25 08:15:00
3:35 AM,27.1,23.2,85,30.35,10.0,Calm,Calm,-,N/A,,Clear,0,2013-10-25 08:35:00
3:55 AM,25.7,22.3,87,30.35,10.0,WSW,3.5,-,N/A,,Scattered Clouds,240,2013-10-25 08:55:00
4:15 AM,26.1,22.5,86,30.35,10.0,Calm,Calm,-,N/A,,Scattered Clouds,0,2013-10-25 09:15:00
4:35 AM,27.1,23.7,87,30.36,10.0,West,3.5,-,N/A,,Scattered Clouds,270,2013-10-25 09:35:00
4:55 AM,27.9,24.4,87,30.36,10.0,Calm,Calm,-,N/A,,Overcast,0,2013-10-25 09:55:00
5:15 AM,28.6,25.2,87,30.36,10.0,Calm,Calm,-,N/A,,Overcast,0,2013-10-25 10:15:00
5:35 AM,29.3,26.1,88,30.36,10.0,Calm,Calm,-,N/A,,Overcast,0,2013-10-25 10:35:00
5:55 AM,29.1,26.1,88,30.35,10.0,Calm,Calm,-,N/A,,Overcast,0,2013-10-25 10:55:00
6:15 AM,28.4,25.2,88,30.35,10.0,Calm,Calm,-,N/A,,Overcast,0,2013-10-25 11:15:00
6:35 AM,27.5,24.3,88,30.36,10.0,SSE,3.5,-,N/A,,Mostly Cloudy,150,2013-10-25 11:35:00
6:55 AM,26.6,23.9,90,30.36,10.0,SSE,4.6,-,N/A,,Mostly Cloudy,150,2013-10-25 11:55:00
7:15 AM,27.7,24.8,89,30.35,10.0,SSE,3.5,-,N/A,,Overcast,150,2013-10-25 12:15:00
7:35 AM,28.4,25.3,88,30.36,10.0,SSE,3.5,-,N/A,,Overcast,160,2013-10-25 12:35:00
7:55 AM,29.3,25.7,86,30.36,10.0,South,3.5,-,N/A,,Overcast,180,2013-10-25 12:55:00
8:15 AM,29.8,26.1,86,30.36,10.0,South,3.5,-,N/A,,Overcast,190,2013-10-25 13:15:00
8:35 AM,31.8,27.5,84,30.36,10.0,South,3.5,-,N/A,,Mostly Cloudy,190,2013-10-25 13:35:00
8:55 AM,32.9,27.9,82,30.36,10.0,SSW,4.6,-,N/A,,Scattered Clouds,210,2013-10-25 13:55:00
9:15 AM,34.2,28.4,79,30.36,10.0,SSW,5.8,-,N/A,,Clear,210,2013-10-25 14:15:00
9:35 AM,36.5,29.5,76,30.36,10.0,SW,6.9,-,N/A,,Clear,230,2013-10-25 14:35:00
9:55 AM,38.1,29.3,71,30.36,10.0,WSW,6.9,-,N/A,,Clear,240,2013-10-25 14:55:00
10:15 AM,39.6,29.7,68,30.36,10.0,WSW,5.8,-,N/A,,Clear,240,2013-10-25 15:15:00
10:35 AM,41.2,29.7,64,30.35,10.0,WSW,6.9,-,N/A,,Clear,250,2013-10-25 15:35:00
10:55 AM,42.8,30.0,61,30.35,10.0,WSW,9.2,-,N/A,,Clear,240,2013-10-25 15:55:00
11:15 AM,43.7,29.7,58,30.34,10.0,WSW,8.1,-,N/A,,Clear,250,2013-10-25 16:15:00
11:35 AM,45.5,29.8,54,30.33,10.0,SW,11.5,-,N/A,,Clear,230,2013-10-25 16:35:00
11:55 AM,46.2,29.7,53,30.32,10.0,WSW,11.5,19.6,N/A,,Clear,250,2013-10-25 16:55:00
12:15 PM,47.5,29.1,49,30.30,10.0,WSW,15.0,19.6,N/A,,Clear,240,2013-10-25 17:15:00
12:35 PM,49.1,28.9,46,30.29,10.0,SW,16.1,20.7,N/A,,Clear,230,2013-10-25 17:35:00
12:55 PM,49.8,27.1,41,30.28,10.0,WSW,18.4,25.3,N/A,,Clear,250,2013-10-25 17:55:00
1:15 PM,50.5,27.1,40,30.26,10.0,SW,17.3,25.3,N/A,,Clear,230,2013-10-25 18:15:00
1:35 PM,51.3,27.1,39,30.24,10.0,SW,18.4,23.0,N/A,,Clear,220,2013-10-25 18:35:00
1:55 PM,51.3,25.9,37,30.23,10.0,SW,19.6,26.5,N/A,,Clear,230,2013-10-25 18:55:00
2:15 PM,52.0,25.7,36,30.21,10.0,SW,18.4,24.2,N/A,,Clear,220,2013-10-25 19:15:00
2:35 PM,52.2,25.2,35,30.20,10.0,SW,21.9,27.6,N/A,,Clear,220,2013-10-25 19:35:00
2:55 PM,52.2,25.3,35,30.19,10.0,SW,23.0,28.8,N/A,,Clear,220,2013-10-25 19:55:00
3:15 PM,52.7,25.0,34,30.18,10.0,SW,20.7,27.6,N/A,,Clear,220,2013-10-25 20:15:00
3:35 PM,52.0,25.2,35,30.17,10.0,SW,21.9,27.6,N/A,,Mostly Cloudy,220,2013-10-25 20:35:00
3:55 PM,51.8,25.5,36,30.16,10.0,SW,21.9,26.5,N/A,,Overcast,220,2013-10-25 20:55:00
4:15 PM,50.9,24.6,36,30.15,10.0,SW,18.4,25.3,N/A,,Overcast,220,2013-10-25 21:15:00
4:35 PM,50.9,24.8,36,30.13,10.0,SSW,21.9,-,N/A,,Overcast,210,2013-10-25 21:35:00
4:55 PM,50.5,24.6,36,30.12,10.0,SSW,19.6,-,N/A,,Overcast,210,2013-10-25 21:55:00
5:15 PM,50.4,25.3,38,30.11,10.0,SW,16.1,26.5,N/A,,Overcast,220,2013-10-25 22:15:00
5:35 PM,49.6,24.8,38,30.09,10.0,SSW,18.4,23.0,N/A,,Overcast,210,2013-10-25 22:35:00
5:55 PM,48.6,25.0,40,30.08,10.0,SSW,15.0,-,N/A,,Mostly Cloudy,210,2013-10-25 22:55:00
6:15 PM,47.7,24.8,41,30.07,10.0,SSW,16.1,-,N/A,,Scattered Clouds,210,2013-10-25 23:15:00
6:35 PM,46.8,25.5,43,30.06,10.0,SSW,16.1,-,N/A,,Clear,200,2013-10-25 23:35:00
6:55 PM,46.4,25.7,44,30.06,10.0,SSW,16.1,21.9,N/A,,Clear,210,2013-10-25 23:55:00
7:15 PM,46.0,26.1,46,30.05,10.0,SSW,16.1,21.9,N/A,,Clear,210,2013-10-26 00:15:00
7:35 PM,45.9,26.2,46,30.05,10.0,SSW,15.0,-,N/A,,Clear,210,2013-10-26 00:35:00
7:55 PM,45.7,26.2,47,30.04,10.0,SSW,16.1,-,N/A,,Clear,210,2013-10-26 00:55:00
8:15 PM,45.7,26.2,47,30.03,10.0,SSW,19.6,23.0,N/A,,Clear,210,2013-10-26 01:15:00
8:35 PM,45.7,26.1,46,30.01,10.0,SSW,19.6,23.0,N/A,,Clear,210,2013-10-26 01:35:00
8:55 PM,45.9,25.9,46,30.01,10.0,SSW,20.7,26.5,N/A,,Clear,210,2013-10-26 01:55:00
9:15 PM,46.2,25.7,45,30.00,10.0,SSW,21.9,27.6,N/A,,Clear,210,2013-10-26 02:15:00
9:35 PM,46.8,25.7,44,30.00,10.0,SSW,20.7,32.2,N/A,,Clear,210,2013-10-26 02:35:00
9:55 PM,46.6,25.5,44,30.00,10.0,SSW,21.9,28.8,N/A,,Clear,210,2013-10-26 02:55:00
10:15 PM,46.2,25.3,44,30.00,10.0,SW,21.9,28.8,N/A,,Clear,220,2013-10-26 03:15:00
10:35 PM,45.5,25.3,45,30.01,10.0,SW,19.6,26.5,N/A,,Clear,220,2013-10-26 03:35:00
10:55 PM,44.8,25.3,47,30.00,10.0,SW,20.7,26.5,N/A,,Clear,220,2013-10-26 03:55:00
11:15 PM,44.1,25.5,48,29.99,10.0,SW,17.3,23.0,N/A,,Clear,220,2013-10-26 04:15:00
11:35 PM,44.2,25.5,48,29.98,10.0,SW,16.1,24.2,N/A,,Clear,220,2013-10-26 04:35:00
11:55 PM,43.7,25.7,49,29.97,10.0,SW,17.3,24.2,N/A,,Clear,220,2013-10-26 04:55:00